Location: Ago
(8.4667°N, 4.4833°E)
Time: 23:55:38
(UTC+00:00)

Cosmos 1844 - Pass Details

Date: 18 September 2020
Orbit: 824 x 866 km, 70.9° (Epoch: 20 October)

Event Time Altitude Azimuth Distance (km) Brightness Sun altitude
Rises 19:15:13 0° 204° (SSW) 3,437 7.1 -24.3°
Reaches altitude 10° 19:17:43 10° 207° (SSW) 2,497 6.4 -24.9°
Maximum altitude 19:23:22 59° 286° (WNW) 983 4.2 -26.3°
Drops below altitude 10° 19:28:58 10° 5° (N) 2,472 6.1 -27.7°
Sets 19:31:26 0° 9° (N) 3,401 6.8 -28.3°
